[[{"header":{"parameterUnit":"m.s-1","parameterCategory":2,"la1":30.2991,"la2":30.254,"lo1":-89.0895,"lo2":-89.0444,"dx":0.0017,"dy":0.0017,"nx":28,"ny":28,"refTime":"2022-12-13T09:00:00:Z","depth":"0","parameterNumber":2,"parameterNumberName":"U-component_of_CURRENTS"},"data":[0,0,0,0,0,0,0,0,0,0,0,0,0,0,0,0,0,0,0,0,0,0,0,0,0,0,0,0,0,0,0,0,0,0,0,0,0,0,0,0,0,0,0,0,0,0,0,0,0,0,0,0,0,0,0,0,0,0,0.2339,0.2339,0,0.2359,0.2359,0.2359,0.2357,0.2357,0.2357,0.2357,0.2354,0.2354,0.2354,0,0,0,0,0,0,0,0,0,0,0,0,0,0.2306,0.2307,0.2339,0.2339,0.234,0.2359,0.2359,0.2359,0.2357,0.2357,0.2357,0.2357,0.2354,0.2354,0.2354,0,0,0,0,0,0,0,0,0,0,0,0,0,0.232,0.2307,0.2339,0.2343,0.2344,0.2359,0.2359,0.2359,0.2357,0.2357,0.2357,0.2357,0.2354,0.2354,0.2354,0.2355,0,0,0.2354,0.2354,0,0,0,0,0,0,0,0,0.2319,0.2321,0.2342,0.2343,0.2344,0.2358,0.2347,0.2358,0.2357,0.2349,0.2357,0.2357,0.2355,0.2355,0.2355,0.2355,0.2355,0.2354,0.2354,0.2354,0.2354,0,0,0,0,0,0,0,0.2318,0.232,0.2344,0.2343,0.2344,0.2348,0.2349,0.2349,0.2349,0.235,0.235,0.2357,0.2355,0.2355,0.2355,0.2355,0.2354,0.2354,0.2354,0.2354,0.2399,0.24,0,0,0,0,0,0,0.2322,0.2319,0.2343,0.2345,0.2335,0.2348,0.235,0.2351,0.235,0.2351,0.2357,0.2357,0.2355,0.2355,0.2355,0.2392,0.2354,0.2354,0.2354,0.2398,0.2399,0.2401,0,0,0,0,0,0,0.2321,0.2323,0.2343,0.2335,0.2338,0.2349,0.2351,0.2352,0.2357,0.2357,0.2356,0.2362,0.2355,0.2355,0.2365,0.239,0.2354,0.2354,0.2396,0.2398,0.24,0.2442,0,0,0,0,0,0,0.232,0.2323,0.2324,0.2335,0.2339,0.2362,0.2351,0.2352,0.2363,0.2362,0.2361,0.236,0.2355,0.2365,0.2365,0.2389,0.2354,0.2395,0.2397,0.2399,0.2439,0.2445,0.245,0,0,0,0,0,0.2318,0.2323,0.2323,0.2327,0.234,0.2363,0.2365,0.237,0.2363,0.2372,0.237,0.2361,0.238,0.2366,0.2365,0.239,0.2394,0.2396,0.2399,0.2437,0.2444,0.245,0,0,0,0,0,0,0.2308,0.2324,0.2324,0.2333,0.2351,0.2364,0.2373,0.2374,0.2379,0.2376,0.2369,0.2369,0.2395,0.2384,0.2368,0.2412,0.2388,0.2391,0.2417,0.2424,0.2429,0.2431,0.2354,0,0,0,0,0,0.2307,0.2315,0.2333,0.2341,0.2351,0.2361,0.237,0.2375,0.2383,0.2384,0.2384,0.2388,0.2405,0.2406,0.2418,0.243,0.2437,0.2449,0.2454,0.2459,0.2461,0.2496,0.2505,0.241,0.241,0.241,0,0,0.2305,0.2316,0.232,0.234,0.2352,0.237,0.2366,0.2385,0.2399,0.2383,0.2399,0.241,0.2415,0.244,0.245,0.2432,0.2493,0.2462,0.2466,0.2466,0.25,0.2509,0.2518,0.2411,0.2411,0.2411,0,0,0.231,0.2318,0.2326,0.2344,0.2368,0.2379,0.2386,0.2404,0.2412,0.2429,0.2433,0.2455,0.2464,0.248,0.2488,0.2529,0.2528,0.2536,0.2556,0.259,0.2598,0.2605,0.2637,0.2646,0.253,0.253,0.253,0,0.2308,0.2317,0.2334,0.235,0.2363,0.2384,0.2398,0.2416,0.2434,0.2445,0.244,0.2482,0.2486,0.2526,0.2544,0.2542,0.2559,0.2529,0.2597,0.2604,0.2611,0.2641,0.2651,0.2533,0.2532,0.2532,0.2532,0,0.2317,0.2328,0.2339,0.2363,0.2382,0.24,0.2429,0.2448,0.2459,0.2477,0.2519,0.2533,0.2556,0.257,0.2567,0.2622,0.262,0.2608,0.2579,0.2623,0.2653,0.2662,0.2536,0.2535,0.2534,0.2534,0,0,0.2305,0.2337,0.234,0.2348,0.2387,0.2402,0.2437,0.2472,0.2502,0.2525,0.2562,0.2598,0.261,0.2621,0.2631,0.2659,0.2725,0.2653,0.2654,0.2682,0.2806,0.2798,0.2808,0.2726,0.2728,0.2729,0.2811,0,0.2306,0.2322,0.2345,0.2368,0.2379,0.2414,0.2449,0.2485,0.2523,0.2568,0.2598,0.2644,0.263,0.2654,0.268,0.2723,0.2751,0.2704,0.2761,0.2763,0.2748,0.2819,0.2771,0.284,0.2821,0.2822,0.2823,0,0.2301,0.2314,0.2326,0.2365,0.2376,0.2397,0.2453,0.2491,0.2566,0.2601,0.2647,0.2679,0.2737,0.2717,0.2796,0.2768,0.2789,0.2813,0.2816,0.2798,0.2772,0.2791,0.2858,0.2828,0.2838,0.2837,0.2836,0,0.2265,0.2301,0.2304,0.2316,0.2368,0.2383,0.2419,0.2491,0.2536,0.2629,0.2671,0.2738,0.2785,0.2821,0.2866,0.2839,0.2955,0.2918,0.2928,0.2928,0.2893,0.2886,0.2933,0.297,0.297,0.297,0.2969,0,0.2246,0.2252,0.2285,0.2287,0.2316,0.2359,0.2408,0.2465,0.2551,0.2613,0.2682,0.2744,0.2816,0.2883,0.2901,0.2958,0.2981,0.2953,0.2957,0.2907,0.2901,0.2876,0.2841,0.2973,0.2972,0.2971,0.2971,0,0.2201,0.222,0.2231,0.2276,0.2294,0.2313,0.2395,0.2434,0.2527,0.2611,0.2644,0.277,0.2869,0.2931,0.302,0.3011,0.2992,0.3067,0.3007,0.3002,0.2957,0.2925,0.2805,0.272,0.3088,0.3089,0.3089,0,0.2174,0.2173,0.2212,0.2224,0.2241,0.2283,0.2315,0.2411,0.2461,0.262,0.2653,0.2791,0.2875,0.3013,0.3056,0.3112,0.3011,0.3081,0.3011,0.297,0.2938,0.2768,0.2692,0.2988,0.2987,0.2987,0.2987,0,0.2134,0.2147,0.216,0.2183,0.2205,0.2238,0.2292,0.2326,0.2447,0.2528,0.2646,0.2732,0.2897,0.2966,0.3063,0.3078,0.2954,0.3072,0.305,0.2888,0.2684,0.26,0.2917,0.2983,0.2983,0.2984,0.2984,0.2984,0.2108,0.2107,0.2127,0.2145,0.2164,0.2177,0.2182,0.225,0.2323,0.2422,0.2564,0.267,0.2868,0.3007,0.2992,0.3006,0.2916,0.2966,0.2941,0.2778,0.2658,0.2967,0.302,0.3021,0.3021,0.3022,0.3022,0,0.2073,0.2078,0.209,0.2098,0.2085,0.2121,0.2151,0.2142,0.2183,0.2334,0.2428,0.2643,0.2755,0.2872,0.2993,0.2921,0.273,0.286,0.2631,0.2569,0.2896,0.2858,0.2853,0.2853,0.2853,0.2853,0.2853,0.2853,0.2059,0.2049,0.2049,0.2016,0.2016,0.1966,0.1961,0.1965,0.2043,0.2156,0.2287,0.2414,0.2713,0.2914,0.2928,0.2856,0.2638,0.2526,0.247,0.2762,0.277,0.2777,0.2735,0.2705,0.2704,0.205,0.2045,0.2042]},{"header":{"parameterUnit":"m.s-1","parameterCategory":2,"la1":30.2991,"la2":30.254,"lo1":-89.0895,"lo2":-89.0444,"dx":0.0017,"dy":0.0017,"nx":28,"ny":28,"refTime":"2022-12-13T09:00:00:Z","depth":"0","parameterNumber":3,"parameterNumberName":"V-component_of_CURRENTS"},"data":[0,0,0,0,0,0,0,0,0,0,0,0,0,0,0,0,0,0,0,0,0,0,0,0,0,0,0,0,0,0,0,0,0,0,0,0,0,0,0,0,0,0,0,0,0,0,0,0,0,0,0,0,0,0,0,0,0,0,0.0251,0.0251,0,0.0193,0.0192,0.0191,0.0146,0.0146,0.0145,0.0145,0.0044,0.0042,0.004,0,0,0,0,0,0,0,0,0,0,0,0,0,0.0293,0.0293,0.0252,0.0251,0.025,0.0193,0.0192,0.0191,0.0146,0.0146,0.0145,0.0145,0.0045,0.0042,0.004,0,0,0,0,0,0,0,0,0,0,0,0,0,0.0258,0.0292,0.0252,0.0222,0.0218,0.0193,0.0192,0.0191,0.0146,0.0146,0.0145,0.0145,0.0046,0.0043,0.0039,0.0027,0,0,0.0028,0.0027,0,0,0,0,0,0,0,0,0.026,0.0256,0.0227,0.0224,0.022,0.0177,0.017,0.0134,0.0146,0.0173,0.0145,0.0145,0.0086,0.0079,0.0068,0.0022,0.0018,0.0028,0.0026,0.0024,0.0023,0,0,0,0,0,0,0,0.0262,0.0258,0.0227,0.0226,0.0222,0.02,0.0195,0.0163,0.0131,0.017,0.0167,0.0162,0.0084,0.0072,0.0065,0.0017,0.0028,0.0025,0.0023,0.0021,-0.0049,-0.0048,0,0,0,0,0,0,0.0274,0.0261,0.0229,0.0226,0.024,0.02,0.0194,0.0191,0.0132,0.0124,0.0163,0.016,0.0078,0.007,0.0062,0.0054,0.0024,0.0021,0.0019,-0.0049,-0.0049,-0.0048,0,0,0,0,0,0,0.0275,0.0272,0.0231,0.0242,0.0236,0.02,0.0196,0.019,0.0177,0.0127,0.0117,0.0157,0.0077,0.0067,0.0038,0.0049,0.0019,0.0016,-0.0049,-0.0049,-0.0049,0.0031,0,0,0,0,0,0,0.0277,0.0273,0.0276,0.0243,0.0236,0.0223,0.0197,0.0189,0.0176,0.0172,0.0119,0.011,0.0076,0.0043,0.0034,0.0044,0.0013,-0.005,-0.0049,-0.0049,0.0028,0.0034,0.0039,0,0,0,0,0,0.0278,0.0289,0.0276,0.0272,0.0241,0.0223,0.0218,0.0189,0.0176,0.0175,0.014,0.0111,0.004,0.0041,0.003,0.0039,-0.005,-0.0049,-0.0049,0.0026,0.0033,0.0039,0,0,0,0,0,0,0.0309,0.0284,0.027,0.0272,0.0251,0.0216,0.0216,0.0194,0.0167,0.0165,0.0114,0.0102,0.008,0.0047,0.0049,0.0019,-0.001,-0.0011,0.0051,0.0057,0.0063,0.0083,0.001,0,0,0,0,0,0.0318,0.0319,0.0289,0.0291,0.0284,0.025,0.024,0.0222,0.0193,0.0181,0.0144,0.0106,0.0074,0.0057,0.0023,0.0008,-0.0023,0.0005,0.0011,0.0016,0.0024,-0.0012,-0.0008,-0.0046,-0.0046,-0.0046,0,0,0.033,0.0317,0.0317,0.0297,0.028,0.0281,0.0243,0.0236,0.0236,0.0174,0.0163,0.0123,0.0073,0.0057,0.0044,0.0031,0.0012,0.0017,0.0022,0.0027,-0.0011,-0.0007,-0.0004,-0.0046,-0.0046,-0.0046,0,0,0.0362,0.0345,0.0359,0.0346,0.0328,0.0307,0.0308,0.0277,0.0263,0.0245,0.0203,0.0172,0.0122,0.0093,0.0071,0.0086,0.0041,0.0073,0.012,0.0085,0.0088,0.009,0.0064,0.0063,0.0078,0.0078,0.0078,0,0.0377,0.0388,0.036,0.037,0.0367,0.0324,0.0339,0.032,0.0283,0.0277,0.0253,0.0185,0.0141,0.0122,0.0126,0.01,0.0075,0.0101,0.0094,0.0095,0.0096,0.0068,0.0067,0.0082,0.0082,0.0081,0.0081,0,0.0418,0.0426,0.0435,0.0433,0.0426,0.0432,0.0405,0.0397,0.0372,0.0348,0.0321,0.026,0.0222,0.0201,0.0167,0.0156,0.0135,0.0105,0.0081,0.0105,0.0074,0.0071,0.0088,0.0086,0.0085,0.0084,0,0,0.0451,0.0462,0.0464,0.0477,0.0461,0.0461,0.0467,0.0457,0.0467,0.0418,0.0421,0.0357,0.0322,0.0294,0.0245,0.0213,0.0195,0.017,0.0166,0.0153,0.0126,0.0119,0.0114,0.0165,0.0165,0.0165,0.0104,0,0.049,0.0528,0.0519,0.0553,0.0569,0.0542,0.0552,0.0538,0.0516,0.0507,0.0443,0.0421,0.0358,0.0343,0.0302,0.0222,0.0189,0.0215,0.0096,0.0093,0.0092,0.0111,0.0133,0.0081,0.0101,0.01,0.01,0,0.053,0.0551,0.0593,0.0618,0.0623,0.0637,0.0648,0.0654,0.0631,0.0614,0.0579,0.0523,0.0471,0.0412,0.0296,0.0316,0.0232,0.0165,0.0161,0.0125,0.0081,0.0057,0.0074,-0.0042,0.0094,0.0095,0.0095,0,0.0566,0.0601,0.0638,0.0645,0.0665,0.0683,0.0695,0.0689,0.0712,0.0685,0.0695,0.061,0.0581,0.0464,0.0327,0.031,0.02,0.0155,0.0069,0.0067,0.0048,0.0046,-0.0053,0.0073,0.0073,0.0074,0.0074,0,0.0605,0.0634,0.0661,0.0681,0.0739,0.0733,0.079,0.0788,0.0802,0.0846,0.0757,0.077,0.0593,0.0506,0.0364,0.0219,0.0226,0.0086,0.0054,0.0077,0.0078,-0.0056,-0.014,0.0071,0.0072,0.0072,0.0073,0,0.0635,0.0649,0.0699,0.0737,0.0758,0.08,0.0868,0.0908,0.0911,0.0966,0.0964,0.0892,0.0782,0.0604,0.0417,0.0283,0.0058,0.0075,0.0121,0.0095,-0.0098,-0.0178,-0.0318,-0.0388,-0.0031,-0.0032,-0.0032,0,0.0653,0.0682,0.0746,0.079,0.0813,0.088,0.0933,0.0961,0.1015,0.1051,0.1086,0.1,0.0962,0.0691,0.0432,0.0189,0.005,0.0044,0.0008,-0.0096,-0.021,-0.0257,-0.0309,0.0011,0.0011,0.0011,0.0011,0,0.0697,0.0717,0.0762,0.0855,0.092,0.1002,0.1083,0.1147,0.1192,0.1237,0.1287,0.1262,0.1013,0.0788,0.0454,0.0267,-0.0039,0.0036,-0.0089,-0.0194,-0.0236,-0.032,0.0041,0.0011,0.0011,0.0011,0.0011,0.0011,0.0735,0.0779,0.0846,0.0932,0.1012,0.1121,0.1199,0.1292,0.1395,0.1486,0.1449,0.1458,0.1137,0.0685,0.0409,-0.0035,-0.0057,-0.016,-0.0251,-0.0289,-0.035,0.002,-0.0036,-0.0036,-0.0036,-0.0037,-0.0037,0,0.0787,0.084,0.0923,0.103,0.112,0.1156,0.1294,0.138,0.1514,0.1615,0.1656,0.1556,0.1124,0.0692,0.0088,-0.0239,-0.0372,-0.0419,-0.0487,-0.053,-0.0211,-0.0201,-0.0274,-0.0273,-0.0273,-0.0273,-0.0273,-0.0273,0.0822,0.0906,0.0947,0.1104,0.118,0.1308,0.1391,0.1523,0.1632,0.179,0.1851,0.1867,0.1607,0.0462,-0.0305,-0.0514,-0.0728,-0.0774,-0.0899,-0.0682,-0.0664,-0.0648,-0.0657,-0.0823,-0.0824,-0.1156,-0.116,-0.1163]}],[{"header":{"parameterUnit":"m.s-1","parameterCategory":2,"la1":30.2991,"la2":30.254,"lo1":-89.0895,"lo2":-89.0444,"dx":0.0017,"dy":0.0017,"nx":28,"ny":28,"refTime":"2022-12-13T09:00:00:Z","depth":"2","parameterNumber":2,"parameterNumberName":"U-component_of_CURRENTS"},"data":[0,0,0,0,0,0,0,0,0,0,0,0,0,0,0,0,0,0,0,0,0,0,0,0,0,0,0,0,0,0,0,0,0,0,0,0,0,0,0,0,0,0,0,0,0,0,0,0,0,0,0,0,0,0,0,0,0,0,0.2207,0.2208,0,0.2235,0.2235,0.2235,0.2246,0.2246,0.2246,0.2246,0.2258,0.2258,0.2258,0,0,0,0,0,0,0,0,0,0,0,0,0,0.2163,0.2163,0.2207,0.2208,0.2208,0.2235,0.2235,0.2235,0.2246,0.2246,0.2246,0.2246,0.2257,0.2258,0.2258,0,0,0,0,0,0,0,0,0,0,0,0,0,0.2183,0.2164,0.2207,0.2218,0.222,0.2235,0.2235,0.2235,0.2246,0.2246,0.2246,0.2246,0.2257,0.2258,0.2258,0.2255,0,0,0.2259,0.2259,0,0,0,0,0,0,0,0,0.2182,0.2184,0.2216,0.2218,0.2219,0.2239,0.2224,0.2242,0.2246,0.2233,0.2246,0.2246,0.2251,0.2252,0.2254,0.2256,0.2256,0.2259,0.2259,0.2259,0.2259,0,0,0,0,0,0,0,0.2181,0.2183,0.2215,0.2217,0.2219,0.2223,0.2225,0.2227,0.2238,0.2234,0.2236,0.2243,0.2252,0.2253,0.2254,0.2256,0.2259,0.2259,0.2259,0.2259,0.231,0.2311,0,0,0,0,0,0,0.2182,0.2182,0.2215,0.2217,0.2204,0.2223,0.2226,0.2231,0.2239,0.2241,0.2243,0.2243,0.2253,0.2254,0.2254,0.2297,0.2259,0.2259,0.2259,0.2309,0.231,0.2311,0,0,0,0,0,0,0.2181,0.2185,0.2214,0.2202,0.2206,0.2224,0.2229,0.2231,0.2243,0.2246,0.2247,0.2254,0.2253,0.2254,0.2269,0.2296,0.2259,0.226,0.2307,0.2309,0.2311,0.2353,0,0,0,0,0,0,0.2179,0.2184,0.219,0.2202,0.2207,0.2235,0.2229,0.2232,0.2248,0.2249,0.2256,0.2256,0.2253,0.2269,0.2269,0.2296,0.226,0.2306,0.2308,0.231,0.235,0.2356,0.2361,0,0,0,0,0,0.2178,0.2185,0.219,0.2194,0.2214,0.2236,0.2239,0.225,0.2248,0.226,0.2263,0.2257,0.2284,0.2269,0.227,0.2297,0.2305,0.2307,0.231,0.2348,0.2355,0.2361,0,0,0,0,0,0,0.2168,0.2188,0.2193,0.2205,0.2226,0.2239,0.2252,0.2256,0.2267,0.2268,0.2265,0.2266,0.2297,0.2287,0.2272,0.232,0.2296,0.2299,0.2325,0.2331,0.2337,0.2339,0.226,0,0,0,0,0,0.2169,0.2181,0.2201,0.2214,0.2225,0.2239,0.2249,0.2258,0.2269,0.2275,0.2279,0.2288,0.2307,0.231,0.2324,0.2339,0.2345,0.2359,0.2365,0.2369,0.2372,0.2404,0.2413,0.232,0.232,0.232,0,0,0.2169,0.2182,0.2189,0.2213,0.2228,0.2247,0.2246,0.2268,0.2285,0.2273,0.2297,0.231,0.2317,0.2345,0.2357,0.2339,0.2402,0.2373,0.2377,0.2377,0.2408,0.2417,0.2425,0.2322,0.2322,0.2321,0,0,0.2174,0.2188,0.22,0.2219,0.2247,0.2259,0.2268,0.2289,0.2302,0.2324,0.233,0.2356,0.237,0.2387,0.2395,0.2436,0.2436,0.2445,0.2466,0.2498,0.2506,0.2512,0.254,0.2549,0.244,0.244,0.244,0,0.2175,0.2188,0.2208,0.2226,0.2241,0.2266,0.2281,0.2302,0.2325,0.2339,0.2338,0.2385,0.2392,0.2431,0.245,0.2449,0.2466,0.2439,0.2505,0.2512,0.2518,0.2545,0.2554,0.2442,0.2442,0.2442,0.2442,0,0.2185,0.2201,0.2213,0.2242,0.2262,0.2283,0.2314,0.2337,0.2354,0.2373,0.242,0.2436,0.2462,0.2477,0.2475,0.253,0.2528,0.2515,0.2487,0.253,0.2556,0.2565,0.2446,0.2445,0.2444,0.2444,0,0,0.2173,0.2211,0.2215,0.2228,0.2271,0.2286,0.2324,0.2361,0.2393,0.2422,0.2461,0.25,0.2516,0.2527,0.2538,0.2565,0.2629,0.2561,0.2561,0.2586,0.2704,0.2682,0.269,0.263,0.2632,0.2633,0.2707,0,0.2176,0.2197,0.2221,0.225,0.2264,0.2301,0.2337,0.2376,0.2416,0.2464,0.2495,0.2545,0.2534,0.2561,0.2586,0.2627,0.2654,0.261,0.266,0.2662,0.2635,0.2699,0.2501,0.2548,0.2716,0.2717,0.2718,0,0.2173,0.2189,0.2207,0.2251,0.2263,0.2287,0.2346,0.2386,0.2461,0.2498,0.2546,0.258,0.2638,0.2621,0.2696,0.2672,0.2691,0.2712,0.2715,0.2684,0.2656,0.2531,0.2558,0.2733,0.2732,0.2731,0.273,0,0.2138,0.2179,0.2188,0.2202,0.2258,0.2278,0.2316,0.2389,0.2434,0.2528,0.2571,0.2638,0.2686,0.272,0.2764,0.2739,0.2845,0.281,0.2805,0.2804,0.2638,0.2619,0.2859,0.2858,0.2858,0.2858,0.2858,0,0.212,0.2131,0.2172,0.2178,0.2211,0.2257,0.2312,0.2367,0.2453,0.2514,0.2585,0.2644,0.2716,0.2779,0.2795,0.284,0.2868,0.2828,0.2829,0.2649,0.2631,0.2786,0.2777,0.2861,0.286,0.286,0.2859,0,0.2076,0.2102,0.212,0.2171,0.2192,0.2215,0.2302,0.2341,0.2436,0.2517,0.2552,0.2671,0.2762,0.2822,0.2903,0.2886,0.2927,0.2929,0.2718,0.2694,0.2853,0.2845,0.2929,0.2929,0.2929,0.2929,0.2929,0,0.2051,0.2054,0.2103,0.2119,0.2142,0.219,0.2224,0.2321,0.2369,0.2524,0.2553,0.2685,0.2756,0.2875,0.2893,0.2933,0.2955,0.2758,0.2671,0.2872,0.2864,0.2856,0.2849,0.2468,0.2465,0.2462,0.2459,0,0.2014,0.2032,0.2051,0.208,0.2107,0.2146,0.2203,0.2232,0.2351,0.2425,0.2532,0.2609,0.2741,0.2717,0.2789,0.2769,0.2736,0.2698,0.2968,0.2488,0.2445,0.2435,0.2441,0.2431,0.2434,0.2436,0.2438,0.2439,0.1991,0.1994,0.202,0.2041,0.2068,0.2086,0.209,0.2152,0.2215,0.2292,0.2428,0.2477,0.2549,0.2566,0.2506,0.2465,0.2645,0.2522,0.2527,0.2537,0.2478,0.2438,0.2412,0.2414,0.2416,0.2418,0.242,0,0.1956,0.1967,0.1981,0.1994,0.1983,0.2032,0.206,0.204,0.2062,0.2172,0.2247,0.2133,0.2153,0.2203,0.2121,0.2142,0.2069,0.2037,0.1926,0.1959,0.1986,0.1893,0.1674,0.1671,0.1668,0.1666,0,0,0.1941,0.1935,0.1934,0.1904,0.1911,0.1873,0.1868,0.1851,0.1896,0.1884,0.1904,0.2085,0.219,0.1914,0.1892,0.1773,0.1835,0.1697,0.2311,0.2218,0.2241,0.2302,0.2202,0,0,0,0,0]},{"header":{"parameterUnit":"m.s-1","parameterCategory":2,"la1":30.2991,"la2":30.254,"lo1":-89.0895,"lo2":-89.0444,"dx":0.0017,"dy":0.0017,"nx":28,"ny":28,"refTime":"2022-12-13T09:00:00:Z","depth":"2","parameterNumber":3,"parameterNumberName":"V-component_of_CURRENTS"},"data":[0,0,0,0,0,0,0,0,0,0,0,0,0,0,0,0,0,0,0,0,0,0,0,0,0,0,0,0,0,0,0,0,0,0,0,0,0,0,0,0,0,0,0,0,0,0,0,0,0,0,0,0,0,0,0,0,0,0,0.0105,0.0104,0,0.0052,0.0051,0.005,0.0012,0.0012,0.0012,0.0011,-0.0082,-0.0084,-0.0086,0,0,0,0,0,0,0,0,0,0,0,0,0,0.0139,0.0138,0.0105,0.0104,0.0104,0.0052,0.0051,0.005,0.0012,0.0012,0.0011,0.0011,-0.0081,-0.0083,-0.0086,0,0,0,0,0,0,0,0,0,0,0,0,0,0.0108,0.0138,0.0105,0.0079,0.0076,0.0052,0.0051,0.005,0.0012,0.0012,0.0011,0.0011,-0.008,-0.0083,-0.0087,-0.0101,0,0,-0.0097,-0.0098,0,0,0,0,0,0,0,0,0.011,0.0106,0.0083,0.0081,0.0078,0.0039,0.0029,-0.0002,0.0012,0.0035,0.0011,0.0011,-0.0044,-0.005,-0.0061,-0.0105,-0.0109,-0.0097,-0.0099,-0.0101,-0.0102,0,0,0,0,0,0,0,0.0112,0.0108,0.0083,0.0083,0.0079,0.0058,0.0054,0.0023,-0.0003,0.0033,0.0031,0.0027,-0.0046,-0.0057,-0.0063,-0.0111,-0.0097,-0.01,-0.0102,-0.0104,-0.0172,-0.0172,0,0,0,0,0,0,0.0123,0.011,0.0084,0.0081,0.0094,0.0058,0.0053,0.0051,-0.0002,-0.001,0.0027,0.0025,-0.0051,-0.0059,-0.0067,-0.0074,-0.0101,-0.0104,-0.0106,-0.0172,-0.0172,-0.0172,0,0,0,0,0,0,0.0124,0.0121,0.0086,0.0095,0.0089,0.0059,0.0056,0.005,0.0041,-0.0007,-0.0015,0.0024,-0.0052,-0.0062,-0.0089,-0.0078,-0.0105,-0.0109,-0.0172,-0.0172,-0.0172,-0.0096,0,0,0,0,0,0,0.0125,0.0122,0.0126,0.0096,0.0089,0.0079,0.0056,0.0049,0.0039,0.0036,-0.0012,-0.0021,-0.0053,-0.0084,-0.0092,-0.0083,-0.0111,-0.0173,-0.0172,-0.0172,-0.0099,-0.0093,-0.0088,0,0,0,0,0,0.0126,0.0136,0.0127,0.0124,0.0096,0.008,0.0074,0.005,0.004,0.004,0.0008,-0.0019,-0.0087,-0.0086,-0.0096,-0.0088,-0.0173,-0.0172,-0.0172,-0.0101,-0.0094,-0.0089,0,0,0,0,0,0,0.0153,0.0133,0.0122,0.0125,0.0107,0.0074,0.0075,0.0056,0.0031,0.0031,-0.0017,-0.0028,-0.0049,-0.008,-0.0078,-0.0107,-0.0134,-0.0136,-0.0077,-0.0071,-0.0066,-0.0046,-0.0114,0,0,0,0,0,0.0162,0.0165,0.0139,0.0142,0.0136,0.0107,0.0098,0.0083,0.0056,0.0045,0.0011,-0.0024,-0.0055,-0.0071,-0.0103,-0.0119,-0.0149,-0.0121,-0.0116,-0.0111,-0.0103,-0.014,-0.0137,-0.017,-0.017,-0.017,0,0,0.0174,0.0163,0.0165,0.0148,0.0133,0.0134,0.0101,0.0096,0.0096,0.0039,0.003,-0.0008,-0.0056,-0.0072,-0.0084,-0.0096,-0.0117,-0.0111,-0.0106,-0.01,-0.0139,-0.0136,-0.0133,-0.017,-0.017,-0.017,0,0,0.0202,0.019,0.0203,0.0193,0.0179,0.016,0.0162,0.0134,0.0122,0.0107,0.0067,0.0038,-0.0008,-0.0038,-0.006,-0.0047,-0.0089,-0.0058,-0.0014,-0.0049,-0.0047,-0.0045,-0.0072,-0.0073,-0.0054,-0.0053,-0.0053,0,0.0217,0.0229,0.0204,0.0215,0.0214,0.0176,0.0191,0.0173,0.014,0.0135,0.0115,0.0051,0.001,-0.0013,-0.0008,-0.0034,-0.0058,-0.0031,-0.0041,-0.004,-0.0039,-0.0068,-0.007,-0.005,-0.005,-0.0051,-0.0051,0,0.0253,0.0264,0.0272,0.0273,0.0268,0.0274,0.025,0.0244,0.0224,0.0201,0.0177,0.012,0.0084,0.0064,0.0032,0.0018,-0.0002,-0.0029,-0.0052,-0.0031,-0.0063,-0.0067,-0.0044,-0.0046,-0.0047,-0.0048,0,0,0.0281,0.0295,0.0298,0.0313,0.0301,0.0302,0.0308,0.0299,0.0308,0.0266,0.0268,0.0208,0.0177,0.015,0.0103,0.007,0.0051,0.0031,0.0027,0.0013,-0.0019,-0.0029,-0.0034,0.0024,0.0023,0.0023,-0.0041,0,0.0316,0.0354,0.0348,0.0382,0.04,0.0377,0.0386,0.0374,0.0355,0.0347,0.0286,0.0267,0.0209,0.0198,0.0156,0.0078,0.0045,0.0072,-0.0046,-0.0049,-0.0053,-0.0038,-0.0028,-0.0084,-0.0045,-0.0046,-0.0046,0,0.0353,0.0375,0.0418,0.0445,0.0451,0.0465,0.0478,0.0485,0.0461,0.0447,0.0414,0.0364,0.0312,0.026,0.0144,0.0166,0.0085,0.0019,0.0015,-0.0022,-0.0066,-0.0103,-0.0093,-0.0053,-0.0053,-0.0052,-0.0052,0,0.0385,0.0423,0.0461,0.0469,0.0491,0.0511,0.0524,0.0518,0.0539,0.0516,0.0525,0.0444,0.0417,0.0304,0.0172,0.0158,0.0044,0.0003,-0.0084,-0.0086,-0.0114,-0.0118,-0.0078,-0.0078,-0.0078,-0.0078,-0.0077,0,0.0422,0.0453,0.0483,0.0505,0.0562,0.0559,0.0615,0.0615,0.0627,0.0665,0.0586,0.0593,0.0427,0.034,0.0205,0.006,0.0067,-0.0069,-0.0101,-0.0088,-0.0088,-0.0094,-0.0094,-0.008,-0.008,-0.0079,-0.0079,0,0.0449,0.0467,0.0518,0.0559,0.0581,0.0624,0.0691,0.0726,0.0732,0.078,0.078,0.0707,0.0596,0.0426,0.0244,0.0116,-0.0033,-0.0088,-0.0055,-0.0082,-0.0149,-0.0146,-0.0195,-0.0196,-0.0196,-0.0197,-0.0198,0,0.0466,0.0496,0.0564,0.0607,0.0632,0.07,0.0749,0.0778,0.0826,0.0856,0.0883,0.0799,0.075,0.0483,0.0239,0.0005,-0.0028,-0.014,-0.0171,-0.0134,-0.0161,-0.0156,-0.0151,-0.0182,-0.0183,-0.0183,-0.0183,0,0.0505,0.0527,0.0573,0.0664,0.0728,0.081,0.0886,0.0937,0.0979,0.1016,0.1052,0.1019,0.0778,0.0543,0.0225,0.0057,-0.0104,-0.0153,-0.0126,-0.0148,-0.0126,-0.0151,-0.0146,-0.0186,-0.0185,-0.0185,-0.0185,-0.0185,0.0536,0.0578,0.0643,0.0727,0.081,0.0912,0.098,0.1056,0.1142,0.1205,0.1175,0.1136,0.0872,0.0466,0.0182,-0.0119,-0.0109,-0.0223,-0.0221,-0.0219,-0.0199,-0.0179,-0.0245,-0.0245,-0.0245,-0.0245,-0.0245,0,0.0573,0.0627,0.0705,0.0807,0.0894,0.0945,0.1065,0.1126,0.1224,0.1289,0.1316,0.1065,0.0808,0.0508,0.0068,-0.0196,-0.0228,-0.0287,-0.0264,-0.026,-0.0257,-0.0238,-0.0295,-0.0296,-0.0297,-0.0297,0,0,0.0596,0.0673,0.071,0.0858,0.094,0.1064,0.1139,0.1228,0.1297,0.1338,0.1327,0.1286,0.092,0.0597,0.0227,-0.0024,-0.0083,-0.0086,-0.002,0.0054,0.0061,-0.0197,-0.0161,0,0,0,0,0]}],[{"header":{"parameterUnit":"m.s-1","parameterCategory":2,"la1":30.2991,"la2":30.254,"lo1":-89.0895,"lo2":-89.0444,"dx":0.0017,"dy":0.0017,"nx":28,"ny":28,"refTime":"2022-12-13T09:00:00:Z","depth":"4","parameterNumber":2,"parameterNumberName":"U-component_of_CURRENTS"},"data":[0,0,0,0,0,0,0,0,0,0,0,0,0,0,0,0,0,0,0,0,0,0,0,0,0,0,0,0,0,0,0,0,0,0,0,0,0,0,0,0,0,0,0,0,0,0,0,0,0,0,0,0,0,0,0,0,0,0,0.1358,0.1359,0,0.1428,0.1429,0.1429,0.1486,0.1486,0.1487,0.1488,0.1568,0.1569,0.157,0,0,0,0,0,0,0,0,0,0,0,0,0,0.1262,0.1263,0.1358,0.1359,0.136,0.1428,0.1429,0.1429,0.1486,0.1486,0.1487,0.1488,0.1567,0.1569,0.1571,0,0,0,0,0,0,0,0,0,0,0,0,0,0.1313,0.1264,0.1358,0.1398,0.1402,0.1428,0.1429,0.143,0.1485,0.1486,0.1488,0.1489,0.1567,0.1569,0.1571,0.1562,0,0,0.1577,0.1578,0,0,0,0,0,0,0,0,0.131,0.1316,0.1391,0.1395,0.14,0.1451,0.1424,0.1475,0.1485,0.1452,0.1488,0.1489,0.153,0.1535,0.1543,0.1565,0.1569,0.1578,0.1579,0.158,0.158,0,0,0,0,0,0,0,0.1307,0.1314,0.1384,0.1392,0.1398,0.1408,0.1417,0.1434,0.1482,0.1455,0.1459,0.147,0.1532,0.1541,0.1545,0.157,0.1578,0.1579,0.1581,0.1582,0.1686,0.1687,0,0,0,0,0,0,0.1301,0.131,0.1382,0.1386,0.1359,0.1409,0.1419,0.1432,0.1482,0.1491,0.1469,0.1472,0.1537,0.1543,0.1548,0.163,0.158,0.1582,0.1583,0.1684,0.1686,0.1687,0,0,0,0,0,0,0.1299,0.1307,0.1379,0.1351,0.1361,0.141,0.1424,0.1433,0.1474,0.1493,0.1502,0.1505,0.1538,0.1545,0.1592,0.163,0.1583,0.1585,0.1682,0.1685,0.1687,0.1736,0,0,0,0,0,0,0.1296,0.1306,0.1328,0.1351,0.1363,0.1417,0.1424,0.1433,0.1477,0.1484,0.1527,0.1534,0.1539,0.1589,0.1595,0.1632,0.1586,0.168,0.1683,0.1686,0.1733,0.174,0.1746,0,0,0,0,0,0.1292,0.1312,0.1328,0.1338,0.1387,0.1418,0.1426,0.1462,0.1478,0.1502,0.1532,0.1534,0.1611,0.1592,0.1598,0.1637,0.1679,0.1683,0.1686,0.173,0.1738,0.1746,0,0,0,0,0,0,0.1284,0.1321,0.1339,0.1371,0.1404,0.1429,0.1458,0.1478,0.1519,0.1535,0.1549,0.1558,0.1617,0.1617,0.1595,0.1676,0.1647,0.1652,0.1678,0.1687,0.1693,0.1693,0.1588,0,0,0,0,0,0.129,0.1317,0.1351,0.1381,0.14,0.1434,0.1458,0.1483,0.1515,0.1536,0.1565,0.1597,0.1629,0.165,0.1677,0.1714,0.1716,0.1745,0.1751,0.1757,0.1761,0.1792,0.1802,0.1698,0.1698,0.1698,0,0,0.1294,0.132,0.1336,0.1382,0.1411,0.1442,0.1452,0.1498,0.153,0.1536,0.1599,0.1626,0.1645,0.1695,0.1721,0.1703,0.179,0.1761,0.1766,0.1767,0.1796,0.1806,0.1815,0.1701,0.17,0.17,0,0,0.1305,0.1343,0.1366,0.1397,0.1449,0.147,0.149,0.1535,0.1569,0.162,0.1639,0.1686,0.1732,0.1754,0.1768,0.1825,0.1827,0.1843,0.1874,0.1904,0.1913,0.192,0.1941,0.195,0.1842,0.1842,0.1842,0,0.1311,0.1346,0.1379,0.141,0.144,0.1485,0.1516,0.1552,0.161,0.1638,0.1651,0.1737,0.1757,0.181,0.1836,0.1841,0.1857,0.1841,0.1912,0.192,0.1927,0.1947,0.1956,0.1845,0.1844,0.1844,0.1844,0,0.1331,0.1371,0.1391,0.1444,0.1479,0.1518,0.1566,0.1613,0.1658,0.1691,0.1769,0.1801,0.185,0.1869,0.1873,0.1938,0.1934,0.192,0.189,0.194,0.1958,0.1967,0.1849,0.1848,0.1847,0.1846,0,0,0.1308,0.1389,0.1399,0.1431,0.1504,0.153,0.1592,0.1652,0.1701,0.1763,0.1822,0.1884,0.1914,0.1932,0.1951,0.198,0.2046,0.1978,0.1979,0.1995,0.2118,0.1994,0.1991,0.2051,0.2052,0.2054,0.2113,0,0.1317,0.1373,0.1415,0.1475,0.1507,0.1568,0.1621,0.1684,0.1746,0.1816,0.1864,0.1936,0.1934,0.1977,0.2006,0.2044,0.2071,0.2031,0.2071,0.2072,0.1951,0.1997,0.2059,0.2119,0.2121,0.2123,0.2124,0,0.1317,0.1358,0.1416,0.1495,0.1517,0.1563,0.1656,0.1712,0.1811,0.1865,0.1937,0.1983,0.2055,0.2042,0.2119,0.21,0.2116,0.2132,0.2134,0.2004,0.1963,0.2058,0.2139,0.2138,0.2137,0.2136,0.2135,0,0.1274,0.1355,0.1403,0.1431,0.1527,0.1572,0.1631,0.173,0.1789,0.1909,0.1965,0.2047,0.2109,0.2143,0.2182,0.2166,0.2252,0.2226,0.2124,0.2116,0.2188,0.2179,0.2271,0.2271,0.2271,0.227,0.227,0,0.1254,0.1295,0.1392,0.1419,0.1483,0.156,0.1645,0.1718,0.183,0.1898,0.1993,0.2052,0.2142,0.2196,0.2209,0.2193,0.2274,0.2137,0.2124,0.2208,0.2201,0.2194,0.2185,0.2273,0.2272,0.2272,0.2271,0,0.1199,0.1266,0.1323,0.1428,0.1466,0.1515,0.1645,0.1697,0.1821,0.1913,0.1958,0.2083,0.2154,0.2214,0.2283,0.222,0.2223,0.2196,0.2295,0.2285,0.206,0.2053,0.2081,0.2077,0.2074,0.2071,0.2069,0,0.1174,0.12,0.1314,0.1351,0.1405,0.1494,0.1548,0.1681,0.1736,0.191,0.1934,0.206,0.2125,0.2119,0.2192,0.2204,0.2178,0.2161,0.2093,0.2056,0.2042,0.2039,0.2037,0.2064,0.2063,0.2062,0.2061,0,0.112,0.1174,0.122,0.1293,0.1356,0.1417,0.1507,0.1537,0.1685,0.1811,0.1876,0.1922,0.1997,0.2044,0.2074,0.2075,0.2159,0.2126,0.2131,0.2068,0.2036,0.2024,0.2025,0.205,0.2051,0.2052,0.2053,0,0.1078,0.1095,0.1161,0.1216,0.1285,0.1311,0.1376,0.1442,0.1514,0.1702,0.1723,0.1855,0.1981,0.1978,0.2003,0.1999,0.1963,0.1888,0.1906,0.1919,0.1837,0.1771,0.1697,0,0,0,0,0,0.1027,0.1034,0.1078,0.1124,0.1186,0.1232,0.133,0.1397,0.1539,0.1542,0.1631,0.1696,0.1751,0.1821,0.1783,0.1921,0.1961,0.1867,0.1882,0.1986,0.1999,0.1917,0,0,0,0,0,0,0.0991,0.1024,0.1041,0.1031,0.1052,0.1105,0.1165,0.1264,0.1277,0.1434,0.1473,0.1596,0.1672,0.176,0.1754,0.1773,0.1747,0.1956,0.1951,0.1979,0.1991,0.2001,0.1921,0,0,0,0,0]},{"header":{"parameterUnit":"m.s-1","parameterCategory":2,"la1":30.2991,"la2":30.254,"lo1":-89.0895,"lo2":-89.0444,"dx":0.0017,"dy":0.0017,"nx":28,"ny":28,"refTime":"2022-12-13T09:00:00:Z","depth":"4","parameterNumber":3,"parameterNumberName":"V-component_of_CURRENTS"},"data":[0,0,0,0,0,0,0,0,0,0,0,0,0,0,0,0,0,0,0,0,0,0,0,0,0,0,0,0,0,0,0,0,0,0,0,0,0,0,0,0,0,0,0,0,0,0,0,0,0,0,0,0,0,0,0,0,0,0,-0.001,-0.001,0,-0.0046,-0.0047,-0.0047,-0.0078,-0.0078,-0.0078,-0.0078,-0.0154,-0.0155,-0.0157,0,0,0,0,0,0,0,0,0,0,0,0,0,0.0011,0.0011,-0.001,-0.001,-0.001,-0.0046,-0.0047,-0.0048,-0.0078,-0.0078,-0.0078,-0.0078,-0.0153,-0.0155,-0.0157,0,0,0,0,0,0,0,0,0,0,0,0,0,-0.0009,0.0011,-0.001,-0.0029,-0.0031,-0.0046,-0.0047,-0.0048,-0.0077,-0.0078,-0.0078,-0.0079,-0.0152,-0.0155,-0.0158,-0.0167,0,0,-0.0166,-0.0167,0,0,0,0,0,0,0,0,-0.0008,-0.001,-0.0026,-0.0028,-0.003,-0.0057,-0.0067,-0.0089,-0.0077,-0.0061,-0.0078,-0.0079,-0.0124,-0.0129,-0.0136,-0.017,-0.0173,-0.0166,-0.0168,-0.0169,-0.017,0,0,0,0,0,0,0,-0.0007,-0.0009,-0.0025,-0.0026,-0.0029,-0.0044,-0.0047,-0.0071,-0.0091,-0.0062,-0.0064,-0.0067,-0.0126,-0.0133,-0.0138,-0.0174,-0.0166,-0.0168,-0.017,-0.0171,-0.0229,-0.0229,0,0,0,0,0,0,0.0001,-0.0007,-0.0024,-0.0026,-0.0019,-0.0044,-0.0048,-0.0049,-0.009,-0.0096,-0.0067,-0.0068,-0.0128,-0.0135,-0.0141,-0.0153,-0.0169,-0.0171,-0.0173,-0.0229,-0.0229,-0.0229,0,0,0,0,0,0,0.0002,-0.0,-0.0022,-0.0017,-0.0021,-0.0044,-0.0045,-0.0049,-0.0058,-0.0093,-0.01,-0.0071,-0.0129,-0.0137,-0.0161,-0.0156,-0.0172,-0.0175,-0.0229,-0.0229,-0.0229,-0.0178,0,0,0,0,0,0,0.0002,0.0,0.0003,-0.0016,-0.0021,-0.0028,-0.0045,-0.005,-0.0058,-0.0061,-0.0099,-0.0106,-0.013,-0.0157,-0.0164,-0.016,-0.0177,-0.0229,-0.0229,-0.0229,-0.018,-0.0176,-0.0173,0,0,0,0,0,0.0003,0.0009,0.0003,0.0001,-0.0017,-0.0027,-0.0031,-0.0049,-0.0058,-0.0059,-0.0085,-0.0105,-0.0161,-0.0159,-0.0167,-0.0164,-0.0229,-0.0229,-0.0229,-0.0181,-0.0177,-0.0173,0,0,0,0,0,0,0.0018,0.0006,-0.0001,0.0,-0.0011,-0.0032,-0.0034,-0.0046,-0.0067,-0.0069,-0.0105,-0.0114,-0.0133,-0.0156,-0.0153,-0.0181,-0.0198,-0.02,-0.0159,-0.0156,-0.0152,-0.0137,-0.0179,0,0,0,0,0,0.0023,0.0025,0.001,0.0011,0.0008,-0.0012,-0.0019,-0.0029,-0.0049,-0.0058,-0.0085,-0.0114,-0.0138,-0.0152,-0.0177,-0.0192,-0.0215,-0.0197,-0.0193,-0.019,-0.0183,-0.0215,-0.0214,-0.0228,-0.0228,-0.0228,0,0,0.0029,0.0023,0.0024,0.0014,0.0005,0.0005,-0.0017,-0.0021,-0.0022,-0.0064,-0.0074,-0.0103,-0.014,-0.0156,-0.0166,-0.0175,-0.0198,-0.019,-0.0187,-0.0182,-0.0215,-0.0214,-0.0212,-0.0228,-0.0228,-0.0228,0,0,0.0044,0.0037,0.0045,0.004,0.0032,0.002,0.0021,0.0003,-0.0007,-0.0019,-0.005,-0.0075,-0.0111,-0.0136,-0.0153,-0.0148,-0.0179,-0.0156,-0.0127,-0.0158,-0.0157,-0.0156,-0.018,-0.0182,-0.0155,-0.0155,-0.0155,0,0.005,0.0059,0.0045,0.0053,0.0054,0.003,0.004,0.0028,0.0003,-0.0001,-0.0016,-0.0067,-0.01,-0.0122,-0.012,-0.014,-0.0159,-0.0138,-0.0153,-0.0153,-0.0153,-0.0178,-0.0181,-0.0152,-0.0152,-0.0153,-0.0153,0,0.0071,0.008,0.0085,0.0088,0.0087,0.0091,0.0077,0.0073,0.0059,0.0043,0.0021,-0.0023,-0.0052,-0.0069,-0.0093,-0.011,-0.0124,-0.0144,-0.016,-0.0148,-0.0176,-0.0179,-0.0149,-0.015,-0.015,-0.0151,0,0,0.0078,0.0096,0.0098,0.0112,0.0108,0.0111,0.0115,0.011,0.0117,0.0084,0.0085,0.0035,0.0011,-0.001,-0.0047,-0.0077,-0.0099,-0.0105,-0.0108,-0.0122,-0.016,-0.016,-0.0164,-0.012,-0.012,-0.0121,-0.0177,0,0.0098,0.0127,0.0128,0.0155,0.017,0.016,0.0167,0.016,0.0148,0.0142,0.0093,0.0078,0.0033,0.0024,-0.0014,-0.0076,-0.0106,-0.0081,-0.0175,-0.0177,-0.0173,-0.0168,-0.0122,-0.018,-0.0181,-0.0182,-0.0182,0,0.0116,0.0136,0.0169,0.0199,0.0204,0.0216,0.0232,0.0238,0.0222,0.0213,0.0187,0.015,0.0103,0.0066,-0.0034,-0.0014,-0.0078,-0.0131,-0.0135,-0.0154,-0.0184,-0.0197,-0.0189,-0.0189,-0.0188,-0.0188,-0.0187,0,0.0132,0.0164,0.0195,0.0204,0.023,0.0246,0.026,0.026,0.0278,0.0263,0.027,0.0204,0.0179,0.0089,-0.0019,-0.0025,-0.0129,-0.0154,-0.0215,-0.0216,-0.0222,-0.0222,-0.0222,-0.0222,-0.0221,-0.0221,-0.0221,0,0.0151,0.0176,0.0208,0.0226,0.027,0.0278,0.0321,0.0325,0.0339,0.0365,0.0311,0.031,0.0185,0.011,0.0003,-0.0112,-0.0114,-0.0206,-0.023,-0.02,-0.0197,-0.0225,-0.0224,-0.0223,-0.0223,-0.0223,-0.0222,0,0.0162,0.0182,0.0222,0.0261,0.0281,0.0313,0.0372,0.0397,0.0409,0.0443,0.0444,0.0389,0.0293,0.0161,0.0014,-0.0074,-0.0192,-0.0235,-0.0182,-0.0203,-0.0265,-0.0261,-0.0305,-0.0305,-0.0306,-0.0306,-0.0306,0,0.017,0.0192,0.025,0.0281,0.0303,0.0357,0.0394,0.0429,0.0463,0.0491,0.0504,0.0436,0.0379,0.0183,0.0033,-0.0165,-0.02,-0.0258,-0.0272,-0.0253,-0.0273,-0.0269,-0.0265,-0.0307,-0.0307,-0.0307,-0.0307,0,0.0182,0.0201,0.0234,0.03,0.0348,0.0409,0.0467,0.05,0.0543,0.0559,0.0564,0.0472,0.0364,0.0198,0.0045,-0.0101,-0.0219,-0.0263,-0.0263,-0.0277,-0.0257,-0.0275,-0.027,-0.0308,-0.0308,-0.0308,-0.0308,0,0.0186,0.0209,0.0253,0.0313,0.0376,0.0437,0.0473,0.052,0.0562,0.0597,0.0598,0.0493,0.0437,0.0231,0.0089,-0.0053,-0.0097,-0.0147,-0.0155,-0.0155,-0.0102,-0.0054,-0.0059,0,0,0,0,0,0.0185,0.021,0.0262,0.0327,0.0392,0.0435,0.0508,0.0539,0.0589,0.0603,0.0608,0.0514,0.0328,0.0248,0.0106,0.0049,-0.0147,-0.0125,-0.0215,-0.0316,-0.0314,-0.0278,0,0,0,0,0,0,0.0182,0.0223,0.0254,0.0329,0.0378,0.0453,0.0502,0.0538,0.0551,0.0585,0.0489,0.0475,0.0285,0.041,0.0103,0.0061,-0.0017,-0.0205,-0.0208,-0.0316,-0.0315,-0.0314,-0.0276,0,0,0,0,0]}]]